{"data":{"norad_id":65472,"epoch":"2026-09-19T18:41:09.801888Z","epoch_age_seconds":177147,"freshness":"STALE","line1":"1 65472U 25195Q   26262.77858567  .00019823  00000+0  59617-3 0  9990","line2":"2 65472  53.1585  72.8265 0001711  87.3361 272.7838 15.34405706 59748","mean_motion":15.34405706,"eccentricity":0.0001711,"inclination_deg":53.1585,"raan_deg":72.8265,"arg_perigee_deg":87.3361,"mean_anomaly_deg":272.7838,"bstar":0.00059617,"rev_number":5974,"period_min":93.84740908934,"perigee_km":461.51581596183,"apogee_km":463.85674568853,"semimajor_km":6840.8232808252,"source":"CELESTRAK","updated_at":"2026-09-21T09:00:35.616762Z"}}